www.pogodaiklimat.ru

Погода и климат >> Архив погоды >> Китай >> Внутренняя Монголия >> Дабейва


ПОГОДА в Дабейва

  • Прогноз погоды в Дабейва
  • Монитор погоды в Дабейва

АРХИВ ПОГОДЫ в Дабейва

Время (UTC), дата Ветер
(напр.,м/с)
 
Видим.   Явления Облачность Т
(С)
Тd
(С)
f
(%)
Тe
(С)
Тes
(С)
Комфортность P
(гПа)
Po
(гПа)
Тmin
(С)
Tmax
(С)
R
(мм)
R24
(мм)
S
(см)
18 15.09 С 4 30 км ?/? +12.1 +1.4 48 +10 +10 1018.3 971.9 +27.9
21 15.09 С 3 30 км н/о +8.7 -2.6 45 +7 +7 1020.4 972.0
00 16.09 С 2 30 км ясно +12.2 -5.8 28 +12 +15 1021.6 973.7
03 16.09 С 2 30 км 3/3
[]
+15.9 -5.8 22 +16 +24 1020.9 973.6
06 16.09 СВ 2 30 км 1/1
[]
+19.0 -3.8 21 +20 +28 1018.9 972.2 +8.6
09 16.09 В 1 30 км 3/3
[]
+18.2 -1.1 27 +19 +20 1018.2 971.4
12 16.09 штиль 0 8000 м ясно +9.3 +6.4 82 +9 +9 1018.9 970.6
18 16.09 штиль 0 30 км ?/? +5.6 +4.1 90 +5 +5 1017.7 968.9 +19.5
21 16.09 штиль 0 30 км н/о +4.4 +2.9 90 +3 +3 1016.8 967.8
00 17.09 Ю 1 17 км 3/3
[]
+11.6 +5.3 65 +12 +14 1015.9 968.2
03 17.09 Ю 5 30 км 3/3
[]
+22.0 +7.8 40 +23 +27 комфорт 1012.6 966.7
06 17.09 З 5 30 км 5/5
[]
+27.6 +2.6 20 +26 +28 жарко 1010.1 965.1 +4.1
09 17.09 С 8 10 км 3/3
[]
+20.4 +2.3 30 +20 +20 1015.9 969.6
12 17.09 СЗ 7 29 км ясно +15.6 -7.9 19 +14 +14 1020.8 973.5
18 17.09 СЗ 2 30 км ?/? +8.2 -7.5 32 +7 +7 1025.0 976.3 +28.7
21 17.09 СЗ 2 30 км ?/? +8.8 -8.7 28 +8 +8 1026.1 977.4
00 18.09 СЗ 4 30 км ясно +12.9 -8.9 21 +12 +14 1027.2 979.1
03 18.09 СЗ 4 30 км ясно +16.1 -6.9 20 +16 +23 1026.8 979.3
06 18.09 З 4 30 км ясно +18.8 -6.8 17 +19 +25 1024.1 977.1 +8.1
09 18.09 СЗ 1 30 км ясно +20.3 -4.1 19 +21 +22 комфорт 1021.9 975.3
12 18.09 З 2 30 км ясно +14.2 -0.6 36 +14 +14 1022.2 974.6
18 18.09 С 1 30 км ?/? +6.2 +3.2 81 +5 +5 1021.5 972.6 +20.7
21 18.09 штиль 0 30 км н/о +5.0 +2.7 85 +4 +4 1021.4 972.3
00 19.09 В 1 12 км 6/6
[]
+13.2 +5.9 61 +14 +15 1020.7 973.0
03 19.09 ЮВ 5 30 км 3/3
[]
+22.4 +4.5 31 +23 +27 комфорт 1019.3 973.1
06 19.09 Ю 4 30 км 4/4
[]
+25.4 +4.0 25 +25 +28 комфорт 1016.1 970.5 +4.8
09 19.09 Ю 2 30 км 6/6
[]
+22.8 +4.3 30 +23 +23 комфорт 1015.4 969.5
12 19.09 Ю 1 8000 м 3/3
[]
+14.6 +7.4 62 +15 +15 1016.0 968.7
18 19.09 С 1 19 км ?/? +9.0 +6.8 86 +8 +8 1015.5 968.8 +25.7
21 19.09 З 1 7000 м н/о +7.8 +6.1 89 +7 +7 1016.7 968.3
00 20.09 В 1 13 км 3/3
[]
+16.3 +7.5 56 +17 +20 1018.3 971.2
03 20.09 С 2 30 км 3/3
[]
+22.5 +3.6 29 +22 +30 комфорт 1018.0 971.9
06 20.09 С 2 30 км 1/1
[]
+24.8 +4.0 26 +24 +32 комфорт 1017.0 971.3 +6.8
09 20.09 СВ 1 27 км ясно +24.0 +3.9 27 +24 +24 комфорт 1017.8 971.9
12 20.09 С 1 18 км 3/3
[]
+14.0 +8.6 70 +14 +14 1019.5 972.0
18 20.09 С 2 30 км ?/? +13.9 +5.5 57 +14 +14 1022.0 974.4 +25.4
21 20.09 Ю 1 30 км н/о +8.1 +5.9 86 +7 +7 1023.3 974.6
00 21.09 С 3 19 км 3/3
[]
+16.5 +6.6 52 +16 +18 1025.2 977.8
03 21.09 С 4 30 км 3/3
[]
+20.4 +4.0 34 +21 +26 комфорт 1025.3 978.5
06 21.09 СВ 3 30 км ясно +22.4 +2.5 27 +22 +29 комфорт 1023.4 977.0 +7.4
09 21.09 С 2 30 км ясно +21.7 +2.4 28 +22 +22 комфорт 1024.0 977.5
12 21.09 С 1 14 км ясно +12.7 +5.6 62 +13 +13 1025.3 977.3
18 21.09 С 1 30 км ?/? +6.0 +4.0 87 +5 +5 1025.8 976.7 +22.9
21 21.09 С 1 22 км н/о +5.2 +3.2 87 +4 +4 1025.4 976.1
00 22.09 СЗ 1 9000 м ясно +13.2 +5.6 60 +14 +17 1026.6 978.6
03 22.09 В 2 30 км ясно +21.2 +2.0 28 +21 +32 комфорт 1025.5 978.8
06 22.09 С 2 30 км ясно +23.4 +1.1 23 +22 +31 комфорт 1022.8 976.6 +4.9
09 22.09 С 2 30 км ясно +22.5 +2.6 27 +22 +23 комфорт 1022.0 975.7

 

Местоположение метеостанции Дабейва (Внутренняя Монголия, Китай): широта 42.33 долгота 120.70 высота над уровнем моря 401 м.

В архиве по умолчанию представлена погода в Дабейва за последнюю неделю. Архивные данные за месяц целиком и за предыдущие месяцы, начиная с января 2011 года, Вы можете получить, выбрав интересующий диапазон дат из раскрывающегося списка и нажав кнопку "Ввод!".


*Определитесь, кто Вы:
робот инопланетянин человек

Внимание! Время в таблицах - всемирное. Для получения местного времени необходимо прибавить поправку, которая равна 8 ч.

Смотрите также архив погоды в соседних городах и на ближайших метеорологических станциях:

Погода в Чаояне (Ляонин, Китай) (89 км)
Погода в Цзиньчжоу (Ляонин, Китай) (138 км)
Погода в Чифэне (Внутренняя Монголия, Китай) (143 км)
Погода в Чжанъу (Ганьсу, Китай) (151 км)
Погода в Тунляо (Внутренняя Монголия, Китай) (190 км)
Погода в Байрин-Цзоци (Внутренняя Монголия, Китай) (212 км)
Погода в Инкоу (Ляонин, Китай) (223 км)
Погода в Шэньяне (Ляонин, Китай) (242 км)
Погода в Вэйчане (Хэбэй, Китай) (247 км)
Погода в Джаруд-Ци (Внутренняя Монголия, Китай) (250 км)

Пояснения к столбцам:

Ветер - указаны скорость ветра в м/с - средняя за 10 мин, порывы в срок и между сроками (в фигурных скобках) и направление, откуда дует ветер: С - северный, СВ - северо-восточный, В - восточный, ЮВ - юго-восточный, Ю - южный, ЮЗ - юго-западный, З - западный, СЗ - северо-западный.
Видимость - горизонтальная дальность видимости в метрах или километрах. При видимости от 1 до 10 км при отсутствии осадков обычно наблюдается дымка, при ухудшении видимости до 1 км и менее - туман. В сухую погоду видимость может ухудшаться дымом, пылью или мглою.
Явления - указаны атмосферные явления, наблюдавшиеся в срок или в последний час перед сроком; фигурными скобками обозначены явления, наблюдавшиеся между сроками (за 1-3 часа до срока); квадратными скобками обозначены град или гололедные отложения с указанием их диаметра в мм.
Облачность - указаны через наклонную черту общая и нижняя облачность в баллах и высота нижней границы облаков в метрах; квадратными скобками обозначены формы облаков: Ci - перистые, Cs - перисто-слоистые, Cc - перисто-кучевые, Ac - высококучевые, As - высокослоистые, Sc - слоисто-кучевые, Ns - слоисто-дождевые, Cu - кучевые, Cb - кучево-дождевые. Подробнее классификацию облаков см. в Атласе облаков (PDF).
T - Температура воздуха - температура, измеренная на высоте 2 м над землей.
Td - Температура точки росы - температура, при понижении до которой содержащийся в воздухе водяной пар достигнет насыщения.
f - Относительная влажность воздуха - влажноcть воздуха, измеренная на высоте 2 м над землей.
Te - Эффективная температура - температура, которую ощущает одетый по сезону человек в тени. Характеристика душности погоды. При расчете учитывается влияние влажности воздуха и скорости ветра на теплоощущения человека.
Tes - Эффективная температура на солнце - температура, которую ощущает человек, с поправкой на солнечный нагрев. Характеристика знойности погоды. Зависит от высоты солнца над горизонтом, облачности и скорости ветра. Ночью, в пасмурную погоду, а также при ветре 12 м/с и более поправка равна нулю.
P - Атмосферное давление - приведенное к уровню моря атмосферное давление.
Po - Атмосферное давление - измеренное на уровне метеостанции атмосферное давление.
Tmin - Минимальная температура - минимум температуры воздуха на высоте 2 м над землей.
Tmax - Максимальная температура - максимум температуры воздуха на высоте 2 м над землей.
R - Количество осадков - Количество выпавших осадков за период времени, мм. При наведении курсора мыши на число - период времени, за который выпало указанное количество осадков.
R24 - Количество осадков - Количество выпавших осадков за 24 часа, мм.
S - Снежный покров - Высота снежного покрова, см. При наведении курсора мыши на число - состояние снежного покрова и степень покрытия местности в баллах.